Regional Weather Roundup
Issued by NWS Sioux Falls, SD

Home | Current Version | Previous Version | Text Only | Print | Product List | Glossary Off
Versions: 1 2 3 4 5 6 7 8 9 10 11 12 13 14 15 16 17 18 19 20 21 22 23 24 25 26 27 28 29 30 31 32 33 34 35 36 37 38 39 40 41 42 43 44 45 46 47 48 49 50

000
ASUS43 KFSD 180602
RWRFSD

WEATHER ROUNDUP FOR SE SOUTH DAKOTA/SW MINNESOTA/NW IOWA
NATIONAL WEATHER SERVICE SIOUX FALLS SD
1200 AM CST WED JAN 18 2017

NOTE: "FAIR" INDICATES FEW OR NO CLOUDS BELOW 12,000 FEET WITH NO
SIGNIFICANT WEATHER AND OR OBSTRUCTIONS TO VISIBILITY.


SDZ038>040-050-052>070-180700-
SOUTHEAST SOUTH DAKOTA

CITY           SKY/WX    TMP DP  RH WIND       PRES   REMARKS
BROOKINGS      CLOUDY    24  23  96 S14       29.88F WCI  12
CHAMBERLAIN    CLOUDY    19  17  92 CALM      29.88F
6HR MIN TEMP:  19; 6HR MAX TEMP:  35;

HURON          CLOUDY    24  24 100 S8        29.88S WCI  15
6HR MIN TEMP:  23; 6HR MAX TEMP:  29;

MADISON          N/A     23  23 100 S10         N/A  WCI  12
MITCHELL       CLOUDY    26  25  96 S9        29.91F WCI  17
6HR MIN TEMP:  26; 6HR MAX TEMP:  33;

SIOUX FALLS    CLOUDY    29  26  89 S9        29.95F WCI  20
6HR MIN TEMP:  25; 6HR MAX TEMP:  29;

WINNER         FAIR      33  21  61 SW8       29.88F WCI  26
YANKTON        CLOUDY    27  25  93 S8        29.97S WCI  18
$$

MNZ071-072-080-081-089-090-097-098-180700-
SOUTHWEST MINNESOTA

CITY           SKY/WX    TMP DP  RH WIND       PRES   REMARKS
FAIRMONT       CLOUDY    26  25  96 SW17G23   30.00F FOG     WCI  13
JACKSON        CLOUDY    27  23  86 SW8       29.98F WCI  18
LUVERNE        CLOUDY    21  19  93 S5        29.98F FOG     WCI  15
MARSHALL       CLOUDY    28  25  88 SW20      29.89F WCI  15
6HR MIN TEMP:  23; 6HR MAX TEMP:  30;

MONTEVIDEO     CLOUDY    21  19  93 SW8       29.91F WCI  12
PIPESTONE      CLOUDY    27  27 100 S10       29.92F WCI  17
REDWOOD FALLS  CLOUDY    22  18  85 S7        29.94F WCI  13
TRACY          CLOUDY    30  27  91 SW23      29.92F WCI  16
WINDOM         CLOUDY    27  27 100 S8        29.96F WCI  18
WORTHINGTON    CLOUDY    27  25  92 SW15      29.97S WCI  15
$$

IAZ001>003-012>014-020>022-031-032-NEZ013-014-SDZ071-180700-
NORTHWEST IOWA

CITY           SKY/WX    TMP DP  RH WIND       PRES   REMARKS
CHEROKEE       CLOUDY    24  24 100 S3        30.03F
DENISON        FOG       28  28 100 S6        30.05S VSB 3/4 WCI  22
ESTHERVILLE    CLOUDY    26  26 100 S9        30.00S FOG     WCI  17
LE MARS        CLOUDY    28  27  93 S7        30.03S WCI  21
ORANGE CITY    CLOUDY    27  27 100 S5        30.00S WCI  21
SHELDON        CLOUDY    28  28 100 S10       29.98F WCI  19
SIOUX CITY     CLOUDY    26  25  96 SE8       30.03F FOG     WCI  18
6HR MIN TEMP:  24; 6HR MAX TEMP:  32;

SPENCER        CLOUDY    25  23  92 S7        30.01F WCI  17
6HR MIN TEMP:  25; 6HR MAX TEMP:  28;

STORM LAKE     CLOUDY    27  27 100 SW10      30.03S WCI  17
$$

ABBREVIATIONS USED IN REMARKS
   TC - TEMPERATURE IN CELSIUS
  WCI - WIND CHILL INDEX
   HX - HEAT INDEX
  VSB - VISIBILITY





USA.gov is the U.S. government's official web portal to all federal, state and local government web resources and services.